DW6193 Weather Reports


Display with metric or nautical units.
time (UTC)temp
F
wind
direction
speed
MPH
gust
MPH
rain 1hr
in
rain 24hr
in
rain mn
in
humidity
%
barometer
mb
20260507193102 69 341 1.0 5.0 0.00 0.00 0.00 1020.6
20260507192528 70 268 1.0 5.0 0.00 0.00 0.00 1020.7
20260507192028 70 158 1.0 6.0 0.00 0.00 0.00 1020.7
20260507191537 71 12 1.0 6.0 0.00 0.00 0.00 1020.8
20260507191027 72 122 2.0 5.0 0.00 0.00 0.00 1020.8
20260507190527 70 252 1.0 5.0 0.00 0.00 0.00 1020.9
20260507190039 69 263 1.0 6.0 0.00 0.00 0.00 1021.0
20260507185528 68 131 2.0 6.0 0.00 0.00 0.00 1021.1
20260507185028 69 109 1.0 5.0 0.00 0.00 0.00 1021.0
20260507184540 69 302 1.0 6.0 0.00 0.00 0.00 1021.0
20260507184026 70 124 1.0 6.0 0.00 0.00 0.00 1021.2
20260507183530 70 304 1.0 5.0 0.00 0.00 0.00 1021.1
20260507183040 70 255 1.0 5.0 0.00 0.00 0.00 1021.4
20260507182527 69 28 1.0 5.0 0.00 0.00 0.00 1021.4
20260507182026 68 248 1.0 5.0 0.00 0.00 0.00 1021.3
20260507181537 69 241 1.0 5.0 0.00 0.00 0.00 1021.5
20260507181029 69 338 1.0 4.0 0.00 0.00 0.00 1021.5
20260507180526 68 338 1.0 6.0 0.00 0.00 0.00 1021.5
20260507180043 67 64 2.0 6.0 0.00 0.00 0.00 1021.6
20260507175526 67 49 1.0 6.0 0.00 0.00 0.00 1021.7
20260507175028 63 291 2.0 5.0 0.00 0.00 0.00 1021.6
20260507174536 69 0 1.0 5.0 0.00 0.00 0.00 1021.8
20260507174025 68 268 1.0 6.0 0.00 0.00 0.00 1021.7
20260507173526 65 322 2.0 6.0 0.00 0.00 0.00 1021.8
20260507173101 67 99 1.0 4.0 0.00 0.00 0.00 1021.8
20260507172526 67 236 1.0 4.0 0.00 0.00 0.00 1021.9
20260507172025 67 268 1.0 4.0 0.00 0.00 0.00 1021.8
20260507171538 67 268 1.0 4.0 0.00 0.00 0.00 1021.8
20260507171027 68 278 1.0 4.0 0.00 0.00 0.00 1021.8
20260507170527 66 268 1.0 4.0 0.00 0.00 0.00 1021.8
20260507170038 66 311 1.0 3.0 0.00 0.00 0.00 1021.8
20260507165526 66 268 0.0 3.0 0.00 0.00 0.00 1021.9
20260507165029 62 259 1.0 5.0 0.00 0.00 0.00 1021.8
20260507164538 61 90 0.0 5.0 0.00 0.00 0.00 1021.8
20260507164029 58 254 2.0 5.0 0.00 0.00 0.00 1021.9
20260507163526 63 243 1.0 5.0 0.00 0.00 0.00 1021.7
20260507163038 60 0 1.0 4.0 0.00 0.00 0.00 1021.8
20260507162525 58 311 1.0 4.0 0.00 0.00 0.00 1021.8
20260507162027 57 302 1.0 4.0 0.00 0.00 0.00 1021.8
20260507161557 58 311 1.0 4.0 0.00 0.00 0.00 1021.8
20260507161025 58 311 1.0 4.0 0.00 0.00 0.00 1021.8
20260507160525 59 0 0.0 2.0 0.00 0.00 0.00 1021.8
20260507160057 58 268 0.0 3.0 0.00 0.00 0.00 1021.7
20260507155528 58 0 1.0 3.0 0.00 0.00 0.00 1021.6
20260507155025 59 0 0.0 3.0 0.00 0.00 0.00 1021.8
20260507154537 56 227 0.0 3.0 0.00 0.00 0.00 1021.7
20260507154024 55 0 0.0 2.0 0.00 0.00 0.00 1021.9
20260507153524 55 205 0.0 3.0 0.00 0.00 0.00 1021.8
20260507153036 55 0 0.0 4.0 0.00 0.00 0.00 1021.8
20260507152523 54 216 1.0 4.0 0.00 0.00 0.00 1021.7
20260507152026 53 9 0.0 4.0 0.00 0.00 0.00 1021.8
20260507151536 53 331 1.0 4.0 0.00 0.00 0.00 1021.8
20260507151024 53 268 0.0 3.0 0.00 0.00 0.00 1021.7
20260507150524 53 0 0.0 3.0 0.00 0.00 0.00 1021.8
20260507150040 53 116 0.0 3.0 0.00 0.00 0.00 1021.8
20260507145523 52 141 1.0 6.0 0.00 0.00 0.00 1021.8
20260507145029 51 291 2.0 6.0 0.00 0.00 0.00 1021.8
20260507144548 52 49 1.0 5.0 0.00 0.00 0.00 1021.7
20260507144027 52 0 0.0 8.0 0.00 0.00 0.00 1021.8
20260507143524 50 0 2.0 8.0 0.00 0.00 0.00 1021.7
20260507143045 50 286 4.0 8.0 0.00 0.00 0.00 1021.7
20260507142525 50 268 2.0 5.0 0.00 0.00 0.00 1021.7
20260507142024 50 283 2.0 6.0 0.00 0.00 0.00 1021.7
20260507141544 50 281 1.0 8.0 0.00 0.00 0.00 1021.7
20260507141026 49 293 1.0 9.0 0.00 0.00 0.00 1021.7
20260507140528 49 285 3.0 9.0 0.00 0.00 0.00 1021.6
20260507140043 49 293 3.0 8.0 0.00 0.00 0.00 1021.5
20260507135524 49 288 3.0 8.0 0.00 0.00 0.00 1021.4
20260507135025 49 282 5.0 8.0 0.00 0.00 0.00 1021.5
20260507134537 49 292 2.0 7.0 0.00 0.00 0.00 1021.4
20260507134027 49 283 2.0 5.0 0.00 0.00 0.00 1021.6
20260507133525 49 268 3.0 8.0 0.00 0.00 0.00 1021.5
20260507133038 48 355 4.0 8.0 0.00 0.00 0.00 1021.4
20260507132524 48 282 4.0 9.0 0.00 0.00 0.00 1021.5
20260507132024 48 285 3.0 10.0 0.00 0.00 0.00 1021.5
20260507131537 48 274 5.0 10.0 0.00 0.00 0.00 1021.3
20260507131024 48 297 5.0 10.0 0.00 0.00 0.00 1021.5
20260507130526 49 301 4.0 10.0 0.00 0.00 0.00 1021.5
20260507130041 48 283 7.0 10.0 0.00 0.00 0.00 1021.5
20260507125523 49 288 5.0 11.0 0.00 0.00 0.00 1021.5
20260507125026 49 322 4.0 11.0 0.00 0.00 0.00 1021.5
20260507124540 49 268 4.0 10.0 0.00 0.00 0.00 1021.3
20260507124023 49 286 5.0 10.0 0.00 0.00 0.00 1021.4
20260507123524 49 285 6.0 10.0 0.00 0.00 0.00 1021.4
20260507123043 49 295 4.0 10.0 0.00 0.00 0.00 1021.5
20260507122525 49 306 5.0 11.0 0.00 0.00 0.00 1021.5
20260507122026 49 282 6.0 11.0 0.00 0.00 0.00 1021.4
20260507121538 49 290 6.0 10.0 0.00 0.00 0.00 1021.5
20260507121024 50 286 4.0 11.0 0.00 0.00 0.00 1021.4
20260507120523 50 286 6.0 11.0 0.00 0.00 0.00 1021.6
20260507120044 50 279 2.0 10.0 0.00 0.00 0.00 1021.6
20260507115523 50 295 4.0 10.0 0.00 0.00 0.00 1021.5
20260507115023 50 292 4.0 10.0 0.00 0.00 0.00 1021.7
20260507114545 50 99 5.0 10.0 0.00 0.00 0.00 1021.6
20260507114029 50 319 4.0 9.0 0.00 0.00 0.00 1021.6
20260507113527 50 276 3.0 9.0 0.00 0.00 0.00 1021.6
20260507113038 50 268 4.0 9.0 0.00 0.00 0.00 1021.6
20260507112524 50 290 3.0 8.0 0.00 0.00 0.00 1021.7
20260507112024 51 0 1.0 10.0 0.00 0.00 0.00 1021.6
20260507111545 51 39 3.0 10.0 0.00 0.00 0.00 1021.7
20260507111023 50 259 5.0 9.0 0.00 0.00 0.00 1021.7
20260507110523 51 277 4.0 9.0 0.00 0.00 0.00 1021.7
20260507110038 51 169 3.0 9.0 0.00 0.00 0.00 1021.7
20260507105525 51 170 2.0 8.0 0.00 0.00 0.00 1021.8
20260507105023 51 282 3.0 6.0 0.00 0.00 0.00 1021.8
20260507104544 51 286 1.0 7.0 0.00 0.00 0.00 1021.8
20260507104023 51 280 1.0 10.0 0.00 0.00 0.00 1021.8
20260507103526 51 243 3.0 10.0 0.00 0.00 0.00 1021.8
20260507103040 51 305 3.0 11.0 0.00 0.00 0.00 1021.8
20260507102525 51 278 5.0 11.0 0.00 0.00 0.00 1021.9
20260507102026 51 39 5.0 11.0 0.00 0.00 0.00 1021.9
20260507101543 51 39 4.0 11.0 0.00 0.00 0.00 1021.9
20260507101027 51 276 2.0 10.0 0.00 0.00 0.00 1021.9
20260507100525 51 288 2.0 10.0 0.00 0.00 0.00 1021.9
20260507100037 51 192 2.0 10.0 0.00 0.00 0.00 1021.9
20260507095524 51 308 4.0 10.0 0.00 0.00 0.00 1022.0
20260507095029 51 292 4.0 9.0 0.00 0.00 0.00 1022.1
20260507094541 52 0 1.0 8.0 0.00 0.00 0.00 1022.1
20260507094027 52 304 2.0 8.0 0.00 0.00 0.00 1022.1
20260507093523 52 324 1.0 10.0 0.00 0.00 0.00 1022.0
20260507093043 52 274 3.0 10.0 0.00 0.00 0.00 1022.2
20260507092526 52 297 2.0 8.0 0.00 0.00 0.00 1022.2
20260507092023 52 317 3.0 10.0 0.00 0.00 0.00 1022.1
20260507091540 52 355 3.0 12.0 0.00 0.00 0.00 1022.1
20260507091023 52 311 5.0 12.0 0.00 0.00 0.00 1022.1
20260507090525 52 288 3.0 9.0 0.00 0.00 0.00 1022.3
20260507090042 52 268 1.0 11.0 0.00 0.00 0.00 1022.3
20260507085527 52 53 3.0 11.0 0.00 0.00 0.00 1022.3
20260507085024 52 0 3.0 11.0 0.00 0.00 0.00 1022.4
20260507084541 52 259 1.0 12.0 0.00 0.00 0.00 1022.3
20260507084028 52 252 5.0 12.0 0.00 0.00 0.00 1022.3
20260507083526 52 293 3.0 11.0 0.00 0.00 0.00 1022.5
20260507083039 52 262 5.0 11.0 0.00 0.00 0.00 1022.3
20260507082524 52 280 4.0 11.0 0.00 0.00 0.00 1022.4
20260507082023 52 309 5.0 12.0 0.00 0.00 0.00 1022.4
20260507081538 52 276 6.0 12.0 0.00 0.00 0.00 1022.4
20260507081025 52 284 6.0 12.0 0.00 0.00 0.00 1022.4
20260507080526 52 286 4.0 12.0 0.00 0.00 0.00 1022.5
20260507080040 52 281 7.0 12.0 0.00 0.00 0.00 1022.3
20260507075525 52 280 5.0 14.0 0.00 0.00 0.00 1022.5
20260507075025 52 218 6.0 14.0 0.00 0.00 0.00 1022.4
20260507074539 52 290 5.0 11.0 0.00 0.00 0.00 1022.4
20260507074026 52 285 5.0 11.0 0.00 0.00 0.00 1022.2
20260507073525 52 290 7.0 11.0 0.00 0.00 0.00 1022.4
20260507073039 52 280 6.0 11.0 0.00 0.00 0.00 1022.3
20260507072527 52 278 4.0 13.0 0.00 0.00 0.00 1022.3
20260507072027 52 293 6.0 13.0 0.00 0.00 0.00 1022.3
20260507071536 52 286 7.0 13.0 0.00 0.00 0.00 1022.3
20260507071025 52 295 8.0 13.0 0.00 0.00 0.00 1022.3
20260507070526 52 329 5.0 13.0 0.00 0.00 0.00 1022.2
20260507070037 52 306 8.0 13.0 0.00 0.00 0.00 1022.3
20260507065526 53 297 7.0 12.0 0.00 0.00 0.00 1022.3
20260507065027 53 283 7.0 12.0 0.00 0.00 0.00 1022.4
20260507064550 53 286 7.0 15.0 0.00 0.00 0.00 1022.3
20260507064023 53 288 7.0 15.0 0.00 0.00 0.00 1022.3
20260507063527 53 282 7.0 12.0 0.00 0.00 0.00 1022.3
20260507063037 53 329 5.0 12.0 0.00 0.00 0.00 1022.5
20260507062527 53 283 7.0 14.0 0.00 0.00 0.00 1022.4
20260507062026 53 291 7.0 15.0 0.00 0.00 0.00 1022.3
20260507061538 53 300 6.0 15.0 0.00 0.00 0.00 1022.4
20260507061023 53 297 5.0 13.0 0.00 0.00 0.00 1022.3
20260507060525 53 281 9.0 15.0 0.00 0.00 0.00 1022.3
20260507060037 53 280 8.0 15.0 0.00 0.00 0.00 1022.4
20260507055524 53 292 7.0 14.0 0.00 0.00 0.00 1022.4
20260507055024 54 275 7.0 12.0 0.00 0.00 0.00 1022.2
20260507054540 54 275 5.0 12.0 0.00 0.00 0.00 1022.3
20260507054029 54 99 3.0 11.0 0.00 0.00 0.00 1022.4
20260507053529 54 283 5.0 12.0 0.00 0.00 0.00 1022.2
20260507053044 54 286 5.0 15.0 0.00 0.00 0.00 1022.2
20260507052528 54 278 9.0 15.0 0.00 0.00 0.00 1022.1
20260507052028 54 279 7.0 15.0 0.00 0.00 0.00 1022.3
20260507051538 55 285 5.0 12.0 0.00 0.00 0.00 1022.3
20260507051030 55 298 3.0 12.0 0.00 0.00 0.00 1022.2
20260507050527 55 0 5.0 12.0 0.00 0.00 0.00 1022.2
20260507050040 55 39 5.0 12.0 0.00 0.00 0.00 1022.2
20260507045527 55 306 3.0 16.0 0.00 0.00 0.00 1022.3
20260507045027 55 316 4.0 16.0 0.00 0.00 0.00 1022.1
20260507044537 55 259 5.0 16.0 0.00 0.00 0.00 1022.2
20260507044026 55 222 5.0 14.0 0.00 0.00 0.00 1022.1
20260507043528 56 274 4.0 12.0 0.00 0.00 0.00 1022.2
20260507043038 56 293 4.0 13.0 0.00 0.00 0.00 1022.0
20260507042525 56 230 4.0 13.0 0.00 0.00 0.00 1022.1
20260507042028 57 71 2.0 10.0 0.00 0.00 0.00 1021.9
20260507041552 57 273 3.0 10.0 0.00 0.00 0.00 1022.0
20260507041028 57 99 2.0 10.0 0.00 0.00 0.00 1021.8
20260507040531 57 39 4.0 10.0 0.00 0.00 0.00 1021.8
20260507040042 57 138 3.0 10.0 0.00 0.00 0.00 1021.8
20260507035529 57 290 3.0 11.0 0.00 0.00 0.00 1021.6
20260507035028 57 359 3.0 11.0 0.00 0.00 0.00 1021.5
20260507034538 58 264 4.0 12.0 0.00 0.00 0.00 1021.5
20260507034028 58 99 5.0 12.0 0.00 0.00 0.00 1021.3
20260507033531 58 307 2.0 11.0 0.00 0.00 0.00 1021.4
20260507033045 58 300 4.0 12.0 0.00 0.00 0.00 1021.4
20260507032526 58 281 3.0 12.0 0.00 0.00 0.00 1021.4
20260507032028 58 302 2.0 11.0 0.00 0.00 0.00 1021.2
20260507031536 59 275 3.0 11.0 0.00 0.00 0.00 1021.1
20260507031028 59 255 2.0 9.0 0.00 0.00 0.00 1021.1
20260507030529 59 268 2.0 9.0 0.00 0.00 0.00 1020.9
20260507030038 59 307 2.0 9.0 0.00 0.00 0.00 1021.0
20260507025528 60 276 2.0 10.0 0.00 0.00 0.00 1021.0
20260507025026 60 286 3.0 10.0 0.00 0.00 0.00 1020.9
20260507024542 61 141 2.0 8.0 0.00 0.00 0.00 1020.8
20260507024028 61 16 3.0 10.0 0.00 0.00 0.00 1020.9
20260507023528 61 99 3.0 10.0 0.00 0.00 0.00 1021.0
20260507023037 61 252 3.0 11.0 0.00 0.00 0.00 1020.7
20260507022026 62 284 3.0 14.0 0.00 0.00 0.00 1020.9
20260507021537 63 309 3.0 10.0 0.00 0.00 0.00 1020.9
20260507021023 63 99 2.0 10.0 0.00 0.00 0.00 1020.8
20260507020526 64 285 2.0 9.0 0.00 0.00 0.00 1021.0
20260507020037 65 192 1.0 6.0 0.00 0.00 0.00 1021.0
20260507015526 64 316 2.0 6.0 0.00 0.00 0.00 1021.1
20260507015029 66 284 1.0 5.0 0.00 0.00 0.00 1021.1
20260507014554 66 124 1.0 5.0 0.00 0.00 0.00 1021.2
20260507014029 66 99 1.0 4.0 0.00 0.00 0.00 1021.4
20260507013527 66 284 0.0 3.0 0.00 0.00 0.00 1021.1
20260507013045 66 282 1.0 3.0 0.00 0.00 0.00 1021.0
20260507012528 66 0 0.0 4.0 0.00 0.00 0.00 1021.0
20260507012030 66 116 1.0 4.0 0.00 0.00 0.00 1021.1
20260507011540 66 295 1.0 5.0 0.00 0.00 0.00 1021.1
20260507011026 67 295 1.0 5.0 0.00 0.00 0.00 1021.2
20260507010526 67 295 0.0 4.0 0.00 0.00 0.00 1021.2
20260507010036 67 277 1.0 4.0 0.00 0.00 0.00 1021.2
20260507005527 68 268 1.0 4.0 0.00 0.00 0.00 1021.2
20260507005023 68 268 1.0 4.0 0.00 0.00 0.00 1021.1
20260507004535 68 0 0.0 2.0 0.00 0.00 0.00 1021.2
20260507004028 68 356 0.0 3.0 0.00 0.00 0.00 1021.2
20260507003527 68 183 0.0 3.0 0.00 0.00 0.00 1021.3
20260507003038 68 355 0.0 3.0 0.00 0.00 0.00 1021.3
20260507002526 69 280 0.0 3.0 0.00 0.00 0.00 1021.3
20260507002027 68 227 1.0 3.0 0.00 0.00 0.00 1021.3
20260507001544 69 268 0.0 2.0 0.00 0.00 0.00 1021.3
20260507001026 69 64 0.0 3.0 0.00 0.00 0.00 1021.1
20260507000530 69 0 0.0 3.0 0.00 0.00 0.00 1021.2
20260507000036 71 252 0.0 3.0 0.00 0.00 0.00 1021.3
20260506235526 71 0 1.0 3.0 0.00 0.00 0.00 1021.3
20260506235026 72 99 0.0 2.0 0.00 0.00 0.00 1021.1
20260506234536 72 64 0.0 4.0 0.00 0.00 0.00 1021.2
20260506234026 73 166 0.0 4.0 0.00 0.00 0.00 1021.1
20260506233527 73 239 1.0 4.0 0.00 0.00 0.00 1021.2
20260506233043 76 243 1.0 4.0 0.00 0.00 0.00 1021.1
20260506232526 76 99 1.0 6.0 0.00 0.00 0.00 1021.2
20260506232035 73 39 1.0 6.0 0.00 0.00 0.00 1021.2
20260506231540 73 276 1.0 6.0 0.00 0.00 0.00 1021.3
20260506231026 76 99 1.0 4.0 0.00 0.00 0.00 1021.4
20260506230526 74 55 1.0 4.0 0.00 0.00 0.00 1021.4
20260506230037 74 39 1.0 3.0 0.00 0.00 0.00 1021.4
20260506225526 74 0 0.0 3.0 0.00 0.00 0.00 1021.5
20260506225029 72 248 0.0 3.0 0.00 0.00 0.00 1021.5
20260506224540 71 131 0.0 4.0 0.00 0.00 0.00 1021.6
20260506224026 69 243 1.0 4.0 0.00 0.00 0.00 1021.5
20260506223526 69 295 1.0 4.0 0.00 0.00 0.00 1021.7
20260506223036 69 268 1.0 4.0 0.00 0.00 0.00 1021.7
20260506222526 70 277 1.0 4.0 0.00 0.00 0.00 1021.6
20260506222027 71 243 0.0 3.0 0.00 0.00 0.00 1021.7
20260506221536 71 64 1.0 3.0 0.00 0.00 0.00 1021.8
20260506221026 74 322 0.0 4.0 0.00 0.00 0.00 1021.8
20260506220527 73 227 1.0 4.0 0.00 0.00 0.00 1021.7
20260506220042 75 99 1.0 3.0 0.00 0.00 0.00 1021.7
20260506215526 79 227 1.0 3.0 0.00 0.00 0.00 1021.7
20260506215026 77 99 1.0 4.0 0.00 0.00 0.00 1021.6
20260506214540 74 0 1.0 6.0 0.00 0.00 0.00 1021.7
20260506214027 74 338 1.0 6.0 0.00 0.00 0.00 1021.8
20260506213526 74 221 0.0 4.0 0.00 0.00 0.00 1021.7
20260506213037 70 0 1.0 5.0 0.00 0.00 0.00 1021.9
20260506212526 68 268 1.0 5.0 0.00 0.00 0.00 1022.1
20260506212026 68 268 1.0 5.0 0.00 0.00 0.00 1022.1
20260506211544 67 355 1.0 5.0 0.00 0.00 0.00 1022.2
20260506211023 67 55 1.0 4.0 0.00 0.00 0.00 1022.1
20260506210527 67 291 1.0 5.0 0.00 0.00 0.00 1022.0
20260506210044 67 355 1.0 5.0 0.00 0.00 0.00 1022.0
20260506205525 70 355 1.0 5.0 0.00 0.00 0.00 1022.0
20260506205026 69 268 1.0 5.0 0.00 0.00 0.00 1022.0
20260506204538 70 0 1.0 4.0 0.00 0.00 0.00 1022.0
20260506204026 70 116 1.0 4.0 0.00 0.00 0.00 1022.0
20260506203526 69 0 1.0 4.0 0.00 0.00 0.00 1022.1
20260506203044 70 243 1.0 4.0 0.00 0.00 0.00 1022.0
20260506202527 69 227 1.0 4.0 0.00 0.00 0.00 1022.0
20260506202027 68 39 1.0 5.0 0.00 0.00 0.00 1022.0
20260506201537 70 183 1.0 5.0 0.00 0.00 0.00 1022.1
20260506201026 73 324 1.0 4.0 0.00 0.00 0.00 1022.1
20260506200526 69 107 0.0 3.0 0.00 0.00 0.00 1022.2
20260506200117 66 0 0.0 4.0 0.00 0.00 0.00 1022.2
20260506195526 64 243 1.0 4.0 0.00 0.00 0.00 1022.3
20260506195028 65 311 1.0 3.0 0.00 0.00 0.00 1022.4
20260506194539 67 283 0.0 4.0 0.00 0.00 0.00 1022.3
20260506194028 66 141 1.0 4.0 0.00 0.00 0.00 1022.3
20260506193526 66 280 1.0 4.0 0.00 0.00 0.00 1022.3